Location: Newark
(20.0000°S, 47.0000°E)
Time: 14:58:58
(UTC+00:00)

Envisat - Pass Details

Date: 24 June 2019
Orbit: 764 x 766 km, 98.1° (Epoch: 16 July)

Event Time Altitude Azimuth Distance (km) Brightness Sun altitude
Exits shadow 16:54:38 15° 221° (SW) 1,988 5.3 -34.6°
Maximum altitude 16:56:52 20° 252° (WSW) 1,743 5.3 -35.1°
Drops below altitude 10° 17:00:26 10° 297° (WNW) 2,300 6.2 -35.9°
Sets 17:03:19 0° 314° (NW) 3,218 7.0 -36.6°
